CW8496 Weather Reports


Display with metric or nautical units.
time (UTC)temp
F
wind
direction
speed
MPH
gust
MPH
rain 1hr
in
rain 24hr
in
rain mn
in
humidity
%
barometer
mb
20260902093018 55 0.0 0.0 0.00 0.01 0.01 75 1025.4
20260902090018 56 0.0 0.0 0.00 0.01 0.01 73 1025.6
20260902083019 56 0.0 0.0 0.00 0.01 0.01 72 1025.6
20260902080017 57 270 1.0 4.0 0.00 0.01 0.01 71 1025.8
20260902073038 59 270 3.0 7.0 0.00 0.01 0.01 67 1025.8
20260902070017 60 270 3.0 9.0 0.00 0.01 0.01 62 1025.5
20260902063017 61 270 4.0 8.0 0.00 0.01 0.01 60 1025.8
20260902060018 62 270 5.0 10.0 0.00 0.01 0.01 56 1026.0
20260902053018 63 270 5.0 12.0 0.00 0.01 0.01 55 1026.0
20260902050017 64 270 5.0 11.0 0.00 0.01 0.01 53 1026.3
20260902043016 65 293 4.0 10.0 0.00 0.01 0.01 52 1026.5
20260902040017 65 293 4.0 9.0 0.00 0.01 0.01 54 1026.7
20260902033017 65 293 4.0 8.0 0.00 0.01 0.01 55 1026.9
20260902030016 65 293 3.0 8.0 0.00 0.01 0.01 65 1027.0
20260902023056 62 293 3.0 7.0 0.00 0.01 0.01 65 1027.4
20260902020136 63 293 3.0 6.0 0.00 0.01 0.01 69 1028.2
20260902013016 62 293 3.0 6.0 0.00 0.01 0.01 71 1028.5
20260902010016 60 293 2.0 5.0 0.00 0.01 0.01 73 1028.8
20260902003016 59 315 2.0 4.0 0.00 0.01 0.01 75 1028.6
20260902000038 57 315 2.0 7.0 0.00 0.01 0.01 76 1028.6
20260901233016 56 293 2.0 6.0 0.00 0.01 0.01 78 1028.5
20260901230018 55 23 2.0 7.0 0.00 0.01 0.01 78 1028.7
20260901223018 54 293 1.0 6.0 0.00 0.01 0.01 79 1028.6
20260901220018 51 270 1.0 8.0 0.00 0.01 0.01 83 1028.1
20260901213018 50 248 1.0 6.0 0.00 0.01 0.01 83 1027.5
20260901210019 50 248 1.0 5.0 0.00 0.01 0.01 85 1027.0
20260901203019 50 0 1.0 7.0 0.00 0.01 0.01 84 1027.1
20260901200039 50 293 1.0 7.0 0.00 0.01 0.01 85 1027.0
20260901193018 49 0.0 8.0 0.00 0.01 0.01 87 1027.3
20260901190018 49 0.0 4.0 0.01 0.01 0.01 87 1027.5
20260901183019 49 270 1.0 7.0 0.01 0.01 0.01 86 1027.9
20260901180038 50 0.0 5.0 0.00 0.00 0.00 81 1027.7
20260901173017 50 270 1.0 9.0 0.00 0.00 0.00 80 1027.5
20260901170017 51 0.0 7.0 0.00 0.00 0.00 79 1027.7
20260901163017 51 270 2.0 11.0 0.00 0.00 0.00 77 1028.3
20260901160018 51 0.0 4.0 0.00 0.00 0.00 80 1028.7
20260901153017 51 293 1.0 10.0 0.00 0.00 0.00 80 1029.0
20260901150017 51 270 1.0 7.0 0.00 0.00 0.00 79 1029.0
20260901143017 51 0.0 4.0 0.00 0.00 0.00 80 1029.4
20260901140017 51 0.0 6.0 0.00 0.00 0.00 81 1029.5
20260901133018 51 0.0 4.0 0.00 0.00 0.00 81 1030.0
20260901130018 51 0.0 4.0 0.00 0.00 0.00 80 1030.2
20260901123018 52 0.0 8.0 0.00 0.00 0.00 79 1030.5
20260901120019 52 0.0 4.0 0.00 0.00 0.00 77 1030.0
20260901113018 52 0.0 2.0 0.00 0.00 0.00 77 1030.5
20260901110017 52 0.0 2.0 0.00 0.00 0.00 77 1030.5
20260901103017 53 0.0 0.0 0.00 0.00 0.00 77 1030.9
20260901100017 53 0.0 0.0 0.00 0.00 0.00 78 1030.7